This is the latest recevied weather packets stored in our database for station/object KC4JY. If no packets are shown the sender has not sent any weather packets the latest 10 day(s).
| Time | Temp. | Humidity | Pressure | Rain* | Wind** | Luminosity | Snow |
|---|---|---|---|---|---|---|---|
| 1777612546 | 13.33° C | 92% | 1012.4 hPa | 0 mm | - | - | - |
| 1777611644 | 13.33° C | 92% | 1012.3 hPa | 0 mm | - | - | - |
| 1777610747 | 13.33° C | 93% | 1012.1 hPa | 0 mm | - | - | - |
| 1777609820 | 12.78° C | 92% | 1011.7 hPa | 0 mm | - | - | - |
| 1777608918 | 13.33° C | 92% | 1011.7 hPa | 0 mm | - | - | - |
| 1777608016 | 13.33° C | 92% | 1011.7 hPa | 0 mm | - | - | - |
| 1777607118 | 13.33° C | 92% | 1011.4 hPa | 0 mm | - | - | - |
| 1777606213 | 13.33° C | 91% | 1011.4 hPa | 0 mm | - | - | - |
| 1777605311 | 13.89° C | 91% | 1011.3 hPa | 0 mm | - | - | - |
| 1777604409 | 13.89° C | 91% | 1011.2 hPa | 0 mm | - | - | - |
| 1777603557 | 14.44° C | 91% | 1011.1 hPa | 0 mm | - | - | - |
| 1777602648 | 14.44° C | 91% | 1011.2 hPa | 0 mm | - | - | - |
| 1777601735 | 14.44° C | 90% | 1011.1 hPa | 0 mm | - | - | - |
| 1777600837 | 14.44° C | 90% | 1010.9 hPa | 0 mm | - | - | - |
| 1777599909 | 15° C | 90% | 1010.5 hPa | 0 mm | - | - | - |
| 1777599008 | 15° C | 89% | 1010.5 hPa | 0 mm | - | - | - |
| 1777598163 | 15° C | 88% | 1010.3 hPa | 0 mm | - | - | - |
| 1777597247 | 15.56° C | 88% | 1010.2 hPa | 0 mm | - | - | - |
| 1777596329 | 16.11° C | 87% | 1010 hPa | 0 mm | - | - | - |
| 1777595430 | 16.11° C | 86% | 1010 hPa | 0 mm | - | - | - |
| 1777594520 | 16.67° C | 85% | 1010 hPa | 0 mm | - | - | - |
| 1777593620 | 17.22° C | 83% | 1009.7 hPa | 0 mm | - | - | - |
| 1777592757 | 18.33° C | 80% | 1009.7 hPa | 0 mm | - | - | - |
| 1777591853 | 18.89° C | 78% | 1009.4 hPa | 0 mm | - | - | - |
| 1777590935 | 18.89° C | 79% | 1008.9 hPa | 0 mm | - | - | - |
* Rain latest hour (hover to see other rain measurements)
** Current wind speed in m/s (hover to see current wind gust speed)